Regional Weather Roundup
Issued by NWS

Home | Current Version | Previous Version | Text Only | Print | Product List | Glossary Off
Versions: 1 2 3 4 5 6 7 8 9 10 11 12 13 14 15 16 17 18 19 20 21 22 23 24 25 26 27 28 29 30 31 32 33 34 35 36 37 38 39 40 41 42 43 44 45 46 47 48 49 50

472
ASUS44 KLIX 161705
RWRLA
LOUISIANA WEATHER ROUNDUP
NATIONAL WEATHER SERVICE NEW ORLEANS LA
1200 PM CDT TUE SEP 16 2014

NOTE: "FAIR" INDICATES FEW OR NO CLOUDS BELOW 12,000 FEET WITH NO
      SIGNIFICANT WEATHER AND/OR OBSTRUCTIONS TO VISIBILITY.
      SKY/WX - SKY CONDITION AND SIGNIFICANT WEATHER.
      TMP - AIR TEMPERATURE.    DP   - DEWPOINT TEMPERATURE.
      RH  - RELATIVE HUMIDITY.  PRES - PRESSURE.
      HX  - HEAT INDEX.         WCI  - WIND CHILL INDEX.

*  THESE STATIONS ARE NOT NWS OR FAA STATIONS AND ARE NOT UNDER
   NWS QUALITY CONTROL.

LAZ040-048-061>063-065-066-069-161800-
SOUTHEAST LOUISIANA

CITY           SKY/WX    TMP DP  RH WIND       PRES   REMARKS
N.O. AUDUBON     N/A     86  78  76 MISG        N/A  HX  97
N.O. INTL ARPT PTSUNNY   88  76  67 CALM      30.05F HX  99
N.O. LAKEFRONT MOSUNNY   85  75  72 NW3       30.06F
N.O. DOWNTOWN* PTSUNNY   84  72  65 S10       30.06F
SLIDELL        MOSUNNY   88  75  65 VRB5      30.05F HX  97
BATON ROUGE    MOSUNNY   88  76  67 VRB3      30.06F HX  99
BOOTHVILLE     PTSUNNY   83  76  79 SW7       30.07F
BELLE CHASSE   TSTM      74  69  85 NW6       30.06F
BOGALUSA*        N/A     86  74  65 CALM      30.08S
GALLIANO*      NOT AVBL
NEW ROADS*     PTSUNNY   86  76  74 W3        30.07S HX  96
GONZALES*      FAIR      87  77  72 CALM      30.05F HX  98
HAMMOND*       MOSUNNY   90  73  58 CALM      30.07F HX  98
HOUMA*         MOSUNNY   82  73  74 S5        30.06F
PORT FOURCHON* NOT AVBL

$$

LAZ041-044-053-054-161800-
SOUTHWEST LOUISIANA

CITY           SKY/WX    TMP DP  RH WIND       PRES   REMARKS
LAKE CHARLES   MOSUNNY   83  76  79 SW9       30.05F
LAFAYETTE      PTSUNNY   89  74  60 CALM      30.06F HX  98
PATTERSON      CLOUDY    75  75 100 S7        30.10S
SALT POINT       N/A     82  73  74 CALM      30.07F
NEW IBERIA     MOSUNNY   90  74  59 NE6       30.06F HX  99
CHENAULT AIRPK MOSUNNY   88  72  58 CALM      30.06F

$$

LAZ027-028-161800-
CENTRAL LOUISIANA

CITY           SKY/WX    TMP DP  RH WIND       PRES   REMARKS
FORT POLK      PTSUNNY   86  74  67 E5        30.08F
ALEXANDRIA INT PTSUNNY   85  72  65 CALM      30.07F
ALEXANDRIA     PTSUNNY   88  73  61 VRB3      30.08F HX  95

$$

LAZ001-002-161800-
NORTHWEST LOUISIANA

CITY           SKY/WX    TMP DP  RH WIND       PRES   REMARKS
SHREVEPORT     PTSUNNY   86  69  56 N3        30.09F
BARKSDALE AFB  PTSUNNY   85  70  60 NE6       30.10F
DTN SHREVEPORT PTSUNNY   82  71  69 NW3       30.10

$$

LAZ014-016-161800-
NORTHEAST LOUISIANA

CITY           SKY/WX    TMP DP  RH WIND       PRES   REMARKS
MONROE         PTSUNNY   84  70  62 N5        30.11F
TALLULAH       MOSUNNY   87  68  52 NE6       30.08F

$$




USA.gov is the U.S. government's official web portal to all federal, state and local government web resources and services.